Погода в Геройском

Россия / Республика Крым     45°08′17″N   33°44′47″E
темп.,
°C
ветер,
м/с
пор.,
м/с
влажн.,
%
обл.,
%
осадки,
мм/ч
давл.,
гПа
погр.,
м
9 мая, вс
вс900:00+11ссз61159100 0.0 1015804
03:00+9ссз61067100 0.0 1017653
06:00+7ссз49782 0.0 1020457
09:00+11ссз68565 0.0 10221306
12:00+14ссз78405 0.0 10231885
15:00+15ссз783559 0.0 10242558
18:00+14сз664124 0.0 10252005
21:00+8сз356611 0.0 102785
10 мая, пн
пн1000:00+7ссз22755 0.0 102728
03:00+6ссв117520 0.0 102711
06:00+6св22768 0.0 102715
09:00+13ссв34490 0.0 1027958
12:00+16с55355 0.0 10262342
15:00+17с55345 0.0 10252350
18:00+15с563630 0.0 10232201
21:00+9сз46645 0.0 102486
11 мая, вт
вт1100:00+7зсз34745 0.0 102250
03:00+7сз34792 0.0 102053
06:00+7сз367634 0.0 1019107
09:00+14сз6846100 0.0 10181150
12:00+12сз475799 0.0 1017850
15:00+16сз2558100 0.0 10151343
18:00+11ссв4687100 0.1 1015286
21:00+11с1189100 0.1 101527
12 мая, ср
ср1200:00+10юв0090100 0.0 101411
03:00+10сз009272 0.0 101311
06:00+10в1291100 0.0 101363
09:00+14ю2372100 0.0 1012732
12:00+13юз5785100 0.6 1013487
15:00+16зюз446616 0.6 1013834
18:00+16зюз33629 0.0 1013585
21:00+11сз228377 0.0 101313
13 мая, чт
чт1300:00+10св22885 0.0 101219
03:00+9всв3491100 0.0 101247
06:00+9всв457689 0.0 101179
09:00+18всв454222 0.0 1010313
12:00+24ююз2333100 0.0 1010953
15:00+24зюз423635 0.0 1009654
18:00+21з444776 0.0 1010286
21:00+14с23694 0.0 101017